Location: Newark
(52.3735°N, 16.9806°E)
Time: 05:52:36
(UTC+00:00)

AO-73 - Visible Passes

Search period start: 05 December 2021 00:00
Search period end: 15 December 2021 00:00
Orbit: 581 x 660 km, 97.6° (Epoch: 04 December)

Date Brightness Start Highest point End Pass type
(mag) Time Alt. Az. Time Alt. Az. Time Alt. Az.
05 Dec ? 03:32:35 10° NNE 03:35:01 31° NNE 03:35:01 31° NNE visible
05 Dec ? 05:09:45 10° NNW 05:12:11 18° NW 05:12:11 18° NW visible
06 Dec ? 02:15:04 10° NE 02:15:24 11° NE 02:15:24 11° NE visible
06 Dec ? 03:50:10 10° N 03:52:34 31° N 03:52:34 31° N visible
06 Dec ? 05:27:55 10° NNW 05:29:44 13° NW 05:29:44 13° NW visible
07 Dec ? 02:32:07 10° NE 02:32:58 14° NE 02:32:58 14° NE visible
07 Dec ? 04:07:49 10° N 04:10:08 28° N 04:10:08 28° N visible
08 Dec ? 02:49:23 10° NNE 02:50:32 16° NE 02:50:32 16° NE visible
08 Dec ? 04:25:32 10° N 04:27:42 24° NNW 04:27:42 24° NNW visible
08 Dec ? 15:26:33 10° SW 15:30:05 24° W 15:33:43 10° NW visible
09 Dec ? 03:06:47 10° NNE 03:08:07 19° NNE 03:08:07 19° NNE visible
09 Dec ? 04:43:19 10° N 04:45:17 20° NNW 04:45:17 20° NNW visible
09 Dec ? 15:44:58 10° SW 15:47:51 17° W 15:50:46 10° NW visible
10 Dec ? 03:24:15 10° NNE 03:25:42 20° NNE 03:25:42 20° NNE visible
10 Dec ? 05:01:12 10° NNW 05:02:52 17° NNW 05:02:52 17° NNW visible
10 Dec ? 16:03:59 10° WSW 16:05:39 12° W 16:07:19 10° WNW visible
11 Dec ? 03:41:47 10° NNE 03:43:17 21° NNE 03:43:17 21° NNE visible
11 Dec ? 05:19:15 10° NNW 05:20:28 14° NW 05:20:28 14° NW visible
12 Dec ? 03:59:25 10° N 04:00:54 20° N 04:00:54 20° N visible
12 Dec ? 05:37:42 10° NNW 05:38:04 11° NW 05:38:04 11° NW visible
13 Dec ? 02:41:08 10° NNE 02:41:19 11° NE 02:41:19 11° NE visible
13 Dec ? 04:17:05 10° N 04:18:30 19° N 04:18:30 19° N visible
13 Dec ? 15:17:48 10° SSW 15:21:37 28° W 15:25:31 10° NNW visible
14 Dec ? 02:58:28 10° NNE 02:58:56 13° NNE 02:58:56 13° NNE visible
14 Dec ? 04:34:50 10° N 04:36:07 17° NNW 04:36:07 17° NNW visible
14 Dec ? 15:36:04 10° SW 15:39:21 20° W 15:42:41 10° NW visible
